SCP
0 0 0 0 0 0 0 0 0 0 0 0 0 0 0 0 0 0 0 0 0 1 1 1 1 1 1 1 1 1 1 1 1 1 1 1 1 1 1 1 1 1 1 1 0 0 0 0 0
0 0 0 0 0 0 0 0 0 0 0 0 0 0 0 0 0 0 0 0 0 1 1 1 1 1 1 1 1 1 1 1 1 1 1 1 1 1 1 1 1 1 1 1 1 0 0 0 0
0 0 0 0 0 0 0 0 0 0 0 0 0 0 0 0 0 0 0 0 0 1 1 1 1 1 1 1 1 1 1 1 1 1 1 1 1 1 1 1 1 1 1 1 1 0 0 0 0
0 0 0 0 0 0 0 0 0 0 0 0 0 0 0 0 0 0 0 0 0 0 1 1 1 1 1 1 1 1 1 1 1 1 1 1 1 1 1 1 1 1 1 1 0 0 0 0 0
1 0 0 0 0 0 0 0 0 0 0 0 0 0 0 0 0 0 0 0 0 1 1 1 1 1 1 1 1 1 1 1 1 1 1 1 1 1 1 1 1 1 1 1 0 0 0 0 0
0 0 0 0 0 0 0 0 0 0 0 0 0 0 0 0 0 0 0 0 0 1 1 1 1 1 1 1 1 1 1 1 1 1 1 1 1 1 1 1 1 1 1 1 0 0 0 0 0
0 0 0 0 0 0 0 0 0 0 0 0 0 0 0 0 0 0 0 0 0 1 1 1 1 0 0 1 1 1 1 1 1 1 1 1 1 1 1 1 1 1 1 0 0 0 0 0 0
0 0 0 0 0 0 0 0 0 0 0 0 0 0 0 0 0 0 0 0 0 1 1 1 1 0 0 0 1 0 1 1 1 1 1 1 1 1 1 1 1 1 1 0 0 0 0 0 0
0 0 0 0 0 0 0 0 0 0 0 0 0 0 0 0 0 0 0 1 1 1 1 1 1 1 0 0 0 0 0 0 0 1 0 0 1 1 1 1 1 1 1 0 0 0 0 0 0
0 0 0 0 0 0 0 0 0 0 0 0 0 0 1 0 0 1 1 0 1 1 1 1 1 1 0 0 0 0 0 0 0 0 0 0 0 1 1 0 0 0 0 0 0 0 0 0 0
0 0 0 0 0 0 0 0 0 0 0 0 0 0 1 1 0 0 0 0 0 1 1 1 1 1 1 0 1 1 1 0 0 0 0 0 0 1 0 0 0 0 0 0 0 0 0 0 0
0 0 0 0 0 0 0 0 0 0 0 0 0 1 1 1 0 0 0 0 0 1 1 1 1 1 1 1 1 1 1 1 0 0 0 0 1 1 1 1 1 0 0 0 0 0 0 0 0
0 0 0 0 0 0 0 0 0 0 0 0 0 1 1 1 0 0 0 0 0 1 1 1 1 1 1 1 1 1 1 1 1 1 1 1 1 1 1 1 1 0 0 0 0 0 0 0 0
0 0 0 0 0 0 0 0 0 0 0 0 0 0 1 1 0 0 0 0 1 1 1 1 1 1 1 1 1 1 1 1 1 1 1 1 1 1 2 1 1 0 0 0 0 0 0 0 0
0 0 0 0 0 0 0 0 0 0 0 0 0 0 0 1 1 1 0 1 1 1 1 1 1 1 1 1 1 1 1 1 1 1 1 1 1 1 2 1 1 0 0 0 0 0 0 0 0
0 0 0 0 0 0 0 0 0 0 0 0 0 0 0 1 1 1 1 1 1 1 1 1 1 1 1 1 1 1 1 1 1 1 1 0 1 1 1 1 0 0 0 0 0 0 0 0 0
0 0 0 0 0 0 0 0 0 0 0 0 0 0 0 0 1 1 1 1 1 1 1 1 1 1 1 2 1 1 1 1 1 1 1 0 1 1 1 1 0 0 0 0 0 0 0 0 0
0 0 0 0 0 0 0 0 0 0 0 0 0 0 0 0 0 1 1 1 1 1 1 1 1 1 1 2 2 1 1 1 1 1 1 1 1 1 1 0 0 0 0 0 0 0 0 0 0
0 0 0 0 0 0 0 0 0 0 0 0 0 0 0 0 0 0 0 1 1 1 1 1 1 1 1 1 2 1 1 1 1 1 1 1 1 0 0 0 0 0 0 0 0 0 0 0 0
0 0 0 0 0 0 0 0 0 0 0 0 0 0 0 0 0 0 0 1 1 1 1 1 1 1 1 1 1 1 1 1 0 0 0 1 1 1 0 0 0 0 0 0 0 0 0 0 0
0 0 0 0 0 0 0 0 0 0 0 0 0 0 0 0 0 0 0 0 1 1 1 1 1 1 1 1 1 1 1 1 0 0 0 0 1 1 0 0 0 0 0 0 0 0 0 0 0
0 0 0 0 0 0 0 0 0 0 0 0 0 0 0 0 0 0 0 0 0 1 1 1 1 1 1 1 1 1 1 0 0 0 0 0 0 0 0 0 0 0 0 0 0 0 0 0 0
0 0 0 0 0 0 0 0 0 0 0 0 0 0 0 0 0 0 0 0 0 1 1 1 1 1 1 1 1 1 1 0 0 0 0 0 0 0 0 0 0 0 0 0 0 0 0 0 0
0 0 0 0 0 0 0 0 0 0 0 0 0 0 0 0 0 0 0 0 0 0 1 1 1 1 1 1 1 1 1 1 0 0 0 0 0 0 0 0 0 0 0 0 0 0 0 0 0
0 0 0 0 0 0 0 0 0 0 0 0 0 0 0 0 0 0 0 0 0 0 0 0 0 0 0 0 0 0 0 0 0 0 0 0 0 0 0 0 0 0 0 0 0 0 0 0 0
0 0 0 0 0 0 0 0 0 0 0 0 0 0 0 0 0 0 0 0 0 0 0 0 0 0 0 0 0 0 0 0 0 0 0 0 0 0 0 0 0 0 0 0 0 0 0 0 0
0 0 0 0 0 0 0 0 0 0 0 0 0 0 0 0 0 0 0 0 0 0 0 0 0 0 0 0 0 0 0 0 0 0 0 0 0 0 0 0 0 0 0 0 0 0 0 0 0
0 0 0 0 0 0 0 0 0 0 0 0 0 0 0 0 0 0 0 0 0 0 0 0 0 0 0 0 0 0 0 0 0 0 0 0 0 0 0 0 0 0 0 0 0 0 0 0 0
0 0 0 0 0 0 0 0 0 0 0 0 0 0 0 0 0 0 0 0 0 0 0 0 0 0 0 0 0 0 0 0 0 0 0 0 0 0 0 0 0 0 0 0 0 0 0 0 0
0 0 0 0 0 0 0 0 0 0 0 0 0 0 0 0 0 0 0 0 0 0 0 0 0 0 0 0 0 0 0 0 0 0 0 0 0 0 0 0 0 0 0 0 0 0 0 0 0
Wind_Speed
11 9 6 3 3 5 8 5 2 1 2 4 5 4 5 5 4 4 3 4 6 7 8 8 8 9 9 9 9 8 8 8 8 7 7 7 7 7 7 8 8 8 9 9 9 10 10 10 10
9 7 4 3 4 6 6 4 2 3 4 3 3 2 2 3 4 6 3 3 5 7 7 7 8 8 9 9 8 8 7 7 7 7 7 7 6 6 7 7 7 8 8 8 8 9 9 9 9
9 7 4 4 5 6 3 2 5 6 4 2 1 2 3 3 4 4 3 4 5 6 6 7 8 7 8 9 8 8 7 6 7 7 6 6 6 6 6 7 7 7 7 7 8 8 8 8 8
4 3 4 6 9 6 3 2 3 4 2 1 1 1 3 4 3 4 5 4 4 5 6 7 8 7 7 7 7 7 6 6 6 6 6 5 5 6 6 6 6 6 7 7 7 7 7 7 6
4 3 5 7 10 5 3 2 1 1 2 2 1 1 3 3 5 6 4 3 4 4 6 7 7 7 6 6 6 6 6 6 5 5 5 5 5 6 6 6 6 6 6 6 6 6 6 6 5
3 4 5 7 7 4 2 2 2 2 1 1 1 1 2 4 4 4 3 3 3 4 5 6 6 6 5 5 5 5 5 5 5 5 4 4 5 5 5 5 6 6 5 5 5 5 5 5 4
4 4 7 8 6 3 1 2 1 2 2 1 1 1 2 3 4 4 3 3 3 4 5 4 4 5 5 4 4 4 4 4 4 4 4 4 4 4 5 5 5 5 5 4 4 4 4 4 3
3 4 6 7 6 4 2 2 2 3 3 2 1 1 1 3 4 4 3 2 3 3 4 4 4 4 4 4 4 4 4 4 4 4 4 4 4 4 4 4 4 4 4 4 3 3 3 3 2
4 4 5 4 4 3 2 2 1 2 2 1 1 2 3 5 4 3 3 2 2 2 3 3 3 3 4 4 4 4 4 4 3 3 4 3 2 3 3 4 4 4 4 3 3 3 2 2 1
3 4 5 3 4 4 4 4 3 2 3 2 1 0 3 4 3 4 3 3 3 3 3 3 3 3 3 3 3 2 2 2 2 2 3 2 2 2 3 5 5 4 3 3 2 1 1 1 1
3 4 4 4 5 5 5 5 4 4 5 4 3 3 4 4 4 4 4 4 4 3 3 3 3 3 3 2 2 2 1 2 2 2 2 1 2 2 2 2 2 2 3 2 1 1 1 0 0
4 5 5 5 3 4 5 5 5 6 6 3 2 1 4 5 5 5 5 4 3 3 3 3 3 3 3 3 2 2 2 1 1 2 2 1 1 1 2 2 2 2 1 2 2 1 1 0 0
6 5 6 5 4 4 5 6 6 8 6 3 2 1 3 4 4 4 3 3 3 3 3 3 3 3 3 3 2 2 2 2 2 2 2 2 2 1 2 1 1 1 1 1 1 1 1 1 1
3 5 7 6 5 4 5 8 7 9 4 4 4 4 4 5 4 4 3 4 3 3 3 3 2 2 3 2 2 2 2 2 2 2 2 2 2 2 2 2 1 1 1 1 1 1 2 2 1
3 5 7 6 6 3 4 9 9 8 5 5 5 5 5 5 5 5 4 3 3 3 3 3 3 3 3 3 3 2 2 2 2 2 2 2 2 2 2 2 2 1 1 1 1 1 1 1 1
4 5 5 3 3 3 3 9 5 3 5 7 6 5 4 4 4 4 4 3 3 3 3 3 2 3 3 3 3 2 2 2 2 2 2 2 2 2 2 2 2 2 2 1 1 1 1 1 1
5 5 6 3 3 2 4 8 5 3 4 6 5 4 4 3 3 3 3 3 3 3 3 3 3 3 3 3 2 2 2 2 2 2 2 2 2 2 2 2 1 2 2 2 1 1 1 1 1
3 5 6 5 2 3 6 10 8 4 5 5 4 3 3 3 3 3 3 3 3 3 3 3 3 3 3 2 2 1 1 1 2 2 2 2 2 2 1 2 2 2 2 1 1 1 1 1 1
6 7 9 6 2 4 8 11 10 6 5 5 4 2 2 2 2 3 3 3 3 2 3 4 3 3 3 2 2 2 2 2 2 2 3 3 3 3 2 1 2 2 2 2 2 2 2 1 1
8 9 9 6 2 4 7 11 9 7 6 5 4 3 3 2 2 2 3 3 3 3 2 3 3 3 3 3 2 1 2 2 2 2 2 3 3 3 2 2 2 2 2 2 2 2 1 1 1
8 7 7 7 6 5 6 8 6 5 5 4 4 3 3 3 3 3 3 3 2 2 2 2 3 3 3 3 2 1 1 1 0 1 2 2 3 3 2 3 2 3 3 3 3 3 3 2 2
7 2 5 6 5 4 2 6 4 3 4 5 4 3 3 3 3 3 3 2 2 2 2 2 2 3 3 3 3 3 2 2 2 2 2 2 3 2 3 2 2 2 2 3 3 3 2 3 2
3 3 4 5 5 6 5 5 6 3 3 3 3 3 2 2 2 3 3 3 2 2 2 1 2 2 2 3 3 3 2 1 1 1 1 1 2 3 3 2 2 2 2 3 3 3 3 3 3
2 3 4 3 2 6 6 5 6 2 3 1 2 2 2 2 3 3 3 3 2 2 1 1 1 1 1 1 2 3 3 2 2 2 2 1 1 2 3 2 2 2 2 3 3 3 4 3 3
1 0 1 2 3 6 3 5 5 1 2 2 1 2 2 3 3 3 3 2 2 2 1 1 1 1 1 1 1 2 2 3 3 3 3 2 1 1 3 2 3 3 3 3 3 3 3 3 3
4 3 3 3 4 3 2 6 4 2 2 2 2 3 3 3 2 2 2 2 1 1 1 0 1 1 1 1 1 1 1 1 1 2 2 2 2 2 2 2 3 3 3 3 3 2 3 3 3
3 3 2 2 3 4 5 4 2 1 0 0 1 2 2 2 2 2 2 1 1 1 1 0 0 0 0 0 0 0 0 1 1 1 1 1 1 1 2 2 2 2 2 2 2 2 3 3 3
3 2 1 3 3 5 6 5 3 3 3 1 1 1 1 2 2 2 2 2 1 1 1 1 1 0 0 0 0 0 0 1 1 1 1 1 1 1 2 2 2 2 2 2 2 2 2 3 3
4 3 3 3 3 3 5 4 1 2 2 1 1 1 1 1 1 1 1 2 2 2 2 1 1 1 1 1 1 1 1 1 1 1 1 1 1 2 2 2 2 2 2 2 2 2 2 3 3
3 4 5 4 5 4 4 6 1 3 3 2 2 1 2 2 2 2 2 2 2 2 2 2 2 1 1 1 1 1 1 1 1 1 1 1 1 2 2 2 2 2 2 2 2 3 3 3 4
Wind_Direction
301 280 266 258 239 233 245 242 241 76 62 41 26 9 11 16 22 91 116 89 97 114 126 138 129 132 132 130 127 127 128 128 126 122 117 112 109 105 100 95 91 89 87 85 82 79 75 70 65
296 289 270 242 245 245 244 222 183 74 74 75 52 359 11 61 66 97 99 87 106 116 123 130 124 131 135 134 132 132 133 135 134 130 125 120 115 112 104 98 94 90 88 87 84 81 77 73 68
281 269 260 243 240 252 279 41 79 78 64 59 63 3 4 63 81 92 97 107 109 113 117 118 121 126 133 138 140 140 139 141 141 137 134 130 124 118 110 102 99 94 90 88 88 84 80 74 67
277 245 241 248 252 261 289 18 86 107 94 81 116 107 86 52 53 76 98 106 113 113 113 119 125 125 128 136 146 149 149 147 142 139 136 134 129 122 116 109 102 97 93 91 89 85 82 75 67
246 253 240 244 251 259 287 330 109 183 178 178 187 185 115 79 76 93 106 110 114 114 114 126 126 129 130 135 141 150 154 148 142 141 139 133 127 123 119 113 106 100 95 93 90 88 85 78 67
252 242 248 248 247 238 250 307 309 282 249 102 279 258 116 117 100 105 110 112 111 107 109 124 130 127 129 132 134 135 143 146 145 146 144 138 128 120 119 118 111 104 99 97 95 92 89 81 71
263 262 263 275 277 264 251 20 315 291 284 261 291 271 128 117 101 105 102 110 109 108 110 122 135 134 126 119 122 127 127 131 139 142 139 128 123 125 122 117 113 108 103 97 92 92 94 87 77
284 279 262 266 273 281 6 15 358 330 303 359 2 268 147 126 114 114 119 115 109 111 122 132 141 142 141 133 122 124 125 127 133 135 126 119 126 130 128 114 108 109 105 100 96 94 95 92 83
272 254 260 282 300 321 12 324 340 5 326 322 332 347 63 110 120 130 132 132 134 138 140 148 151 149 147 150 150 142 136 136 138 138 145 152 150 139 137 125 122 118 112 108 106 100 101 101 91
243 253 262 307 325 327 329 316 307 256 267 254 237 149 111 129 151 167 172 180 175 173 165 157 155 153 153 157 148 154 160 154 156 145 158 172 146 137 132 125 129 127 127 126 122 124 168 184 196
251 260 287 303 326 329 315 304 297 272 264 252 239 195 155 170 187 195 196 196 191 182 177 163 158 156 155 145 153 158 147 144 157 148 169 155 130 133 132 127 130 138 143 140 142 183 240 220 89
259 276 291 303 334 317 295 290 287 261 259 300 321 181 169 188 203 204 204 201 191 184 186 169 164 162 161 146 151 152 144 151 158 161 169 153 138 140 139 143 152 154 159 161 173 191 199 221 296
248 268 284 291 292 280 286 276 276 266 261 266 258 194 194 202 209 210 206 200 193 191 186 178 166 165 158 151 159 160 159 163 168 168 175 161 150 153 143 144 148 160 160 162 180 179 182 211 230
293 289 280 272 266 263 268 269 259 257 242 238 226 216 209 211 210 207 205 209 204 193 186 177 174 168 152 150 161 167 166 169 172 172 178 178 163 163 158 144 155 162 160 172 181 190 191 210 201
283 277 268 243 233 232 271 269 240 250 233 235 226 221 214 213 207 206 203 207 199 187 177 178 179 172 165 166 174 170 173 174 175 176 177 180 166 166 162 152 163 169 164 168 171 186 162 200 213
238 250 260 222 204 191 237 268 257 236 218 233 229 226 217 212 203 199 196 188 188 183 174 180 186 176 177 171 176 169 179 178 174 168 168 168 165 174 171 166 173 167 158 165 166 168 166 218 239
218 256 268 258 196 196 228 268 275 266 231 236 228 222 215 207 197 189 187 179 180 179 174 173 179 179 182 177 173 173 173 167 170 165 169 170 173 181 177 167 176 168 169 181 184 183 180 214 236
273 272 279 274 221 243 246 262 274 262 246 246 234 217 211 206 201 179 175 170 162 169 172 172 178 181 174 167 153 150 159 170 177 175 173 170 174 178 185 174 179 173 173 186 180 184 193 198 209
288 284 283 287 295 271 261 270 272 257 243 244 234 217 203 209 182 151 155 144 138 157 174 175 180 184 170 165 169 178 195 189 189 189 181 178 177 179 188 182 183 179 187 197 185 173 181 188 139
265 273 280 289 319 291 280 275 266 246 233 224 226 211 201 191 157 147 138 134 147 161 169 172 181 185 182 179 181 184 167 188 190 181 177 177 179 185 192 189 195 193 190 193 192 178 167 181 164
256 257 277 295 310 262 277 278 240 227 214 206 205 198 184 179 177 161 146 141 137 151 166 166 169 177 176 170 153 117 96 73 181 189 186 192 187 188 193 199 197 201 194 199 203 191 183 190 204
261 283 284 289 297 281 257 287 259 223 199 204 206 189 185 182 173 162 153 148 155 165 160 169 167 171 176 169 167 172 188 203 215 195 189 185 180 187 193 196 201 207 205 200 206 200 195 180 199
257 319 291 276 267 279 252 260 268 221 223 214 184 162 169 158 162 156 152 155 150 138 143 164 153 160 168 169 173 180 197 209 182 151 167 191 184 187 193 191 195 209 214 208 203 204 202 195 194
276 291 269 250 242 260 229 229 273 220 220 193 134 136 135 117 107 100 106 106 103 104 106 106 132 137 133 154 175 186 197 189 175 181 190 203 205 200 194 197 203 209 214 211 212 211 204 203 201
213 314 318 289 235 248 188 220 252 185 105 128 136 118 112 102 105 105 99 100 106 112 113 105 115 109 109 151 180 199 199 190 196 195 197 205 215 226 213 205 211 212 217 215 211 216 209 205 202
220 200 189 233 259 285 217 233 245 144 95 87 87 95 93 89 92 97 106 119 127 132 123 127 172 151 157 189 197 187 184 204 216 205 197 209 215 223 217 209 214 220 215 213 207 213 218 201 207
225 218 234 263 286 282 256 229 217 113 1 107 79 84 91 86 86 80 71 88 108 111 118 210 232 157 168 179 173 197 203 271 261 248 196 206 217 233 221 230 219 225 220 209 203 209 217 206 210
233 224 183 202 240 265 269 244 237 208 233 203 83 58 66 72 60 59 55 46 50 64 61 48 18 0 16 53 73 321 328 296 279 252 253 240 229 233 227 235 228 226 230 221 208 208 218 217 217
181 199 209 223 228 234 275 269 352 148 128 131 139 98 84 108 84 50 39 36 32 45 54 33 23 24 18 19 6 329 298 286 278 254 247 254 264 238 228 231 232 230 229 227 218 224 217 225 223
232 208 185 197 239 234 258 269 48 84 73 79 66 48 58 69 70 54 39 33 30 30 37 22 2 2 -0 360 359 339 341 323 292 278 272 256 255 259 244 228 230 233 232 229 222 228 225 222 226